[[[{"header":{"parameterUnit":"kt","parameterCategory":2,"dx":1,"dy":1,"la1":30.253999710083008,"la2":30.299108505249023,"lo1":-89.0895004272461,"lo2":-89.04439544677734,"nx":28,"ny":28,"refTime":"2022-10-03T21:00:00:Z","depth":0,"parameterNumber":1,"parameterNumberName":"U-component_of_WINDS"},"data":[-3.023,-3.0359,-3.0321,-3.045,-3.0438,-3.0521,-3.0539,-3.0558,-3.0563,-3.0658,-3.0706,-3.0682,-3.0674,-3.0723,-3.0775,-3.0763,-3.0791,-3.0862,-3.0838,-3.0545,-3.0502,-3.0462,-3.043,-3.0867,-3.0868,-3.1149,-3.1152,-3.1154,-3.0017,-3.0007,-3.0063,-3.0093,-3.0142,-3.0049,-3.0065,-3.0113,-3.0191,-3.0198,-3.0243,-3.0324,-3.0383,-3.035,-3.0402,-3.0463,-3.0425,-3.048,-3.0479,-3.048,-3.0164,-3.0131,-3.051,-3.051,-3.051,-3.051,-3.051,-3.051,-2.9621,-2.9699,-2.9695,-2.9757,-2.9761,-2.9782,-2.985,-2.9818,-2.9874,-2.9923,-2.9866,-2.9953,-2.9955,-2.9999,-3.0005,-3.0072,-3.0005,-3.0056,-3.007,-3.0086,-3.0109,-2.9716,-3.0078,-3.0077,-3.0076,-3.0075,-3.0074,0,-2.9321,-2.9284,-2.9336,-2.9377,-2.942,-2.9448,-2.9468,-2.9509,-2.9419,-2.947,-2.954,-2.9574,-2.9642,-2.9706,-2.9745,-2.9741,-2.9656,-2.964,-2.9676,-2.971,-2.9734,-2.9729,-2.922,-2.9633,-2.9629,-2.9626,-2.9624,-2.9622,-2.8925,-2.9019,-2.8996,-2.9038,-2.9039,-2.9108,-2.9141,-2.9054,-2.9094,-2.9106,-2.918,-2.9241,-2.9286,-2.9406,-2.937,-2.9422,-2.9383,-2.9545,-2.9391,-2.9416,-2.9393,-2.9392,-2.9402,-2.958,-2.9586,-2.959,-2.9593,0,-2.8706,-2.8643,-2.8777,-2.8745,-2.874,-2.8844,-2.8818,-2.8892,-2.8853,-2.8951,-2.8969,-2.8909,-2.8981,-2.8918,-2.8987,-2.8953,-2.9128,-2.9084,-2.9127,-2.9117,-2.9261,-2.9251,-2.9726,-2.9786,-2.9324,-2.9329,-2.9332,0,-2.8347,-2.8474,-2.8374,-2.8456,-2.8593,-2.8503,-2.8643,-2.8623,-2.8622,-2.8698,-2.8587,-2.8661,-2.8568,-2.8634,-2.8584,-2.8714,-2.8726,-2.871,-2.8697,-2.8725,-2.8728,-2.8752,-2.8734,-2.8654,-2.8652,-2.865,-2.8648,0,-2.8018,-2.8111,-2.8241,-2.8253,-2.8233,-2.8297,-2.8292,-2.8289,-2.8324,-2.8357,-2.838,-2.8425,-2.8453,-2.8491,-2.8427,-2.8325,-2.8583,-2.843,-2.8568,-2.857,-2.8635,-2.8634,-2.9062,-2.8645,-2.8644,-2.8644,-2.8643,0,-2.7721,-2.7755,-2.7951,-2.7932,-2.7961,-2.8047,-2.8086,-2.8144,-2.8151,-2.8124,-2.815,-2.8071,-2.8176,-2.8029,-2.8174,-2.8061,-2.8094,-2.8087,-2.8095,-2.8108,-2.7949,-2.8208,-2.8615,-2.8659,-2.811,-2.8106,-2.8102,0,-2.7364,-2.7545,-2.7469,-2.7658,-2.7734,-2.7605,-2.7698,-2.7706,-2.7678,-2.7739,-2.7707,-2.7779,-2.7655,-2.767,-2.7748,-2.7722,-2.7869,-2.7699,-2.7797,-2.7801,-2.7806,-2.8178,-2.8258,-2.8531,-2.8044,-2.805,-2.8054,0,-2.7081,-2.7054,-2.7094,-2.7105,-2.71,-2.7163,-2.7268,-2.7318,-2.7364,-2.7384,-2.7474,-2.7569,-2.7482,-2.7507,-2.7448,-2.7534,-2.7767,-2.743,-2.7429,-2.7498,-2.8007,-2.8083,-2.813,-2.7708,-2.7715,-2.7721,-2.8008,0,-2.6658,-2.6739,-2.6839,-2.6867,-2.6904,-2.7017,-2.695,-2.6998,-2.6937,-2.6906,-2.7034,-2.7026,-2.708,-2.7113,-2.7055,-2.727,-2.7226,-2.7132,-2.6992,-2.7234,-2.7328,-2.7366,-2.6857,-2.6853,-2.6849,-2.6846,0,0,-2.6336,-2.6451,-2.6365,-2.6465,-2.6492,-2.6358,-2.6487,-2.6497,-2.6524,-2.6547,-2.6465,-2.6602,-2.6601,-2.6765,-2.6835,-2.6855,-2.6889,-2.6808,-2.7118,-2.7148,-2.7177,-2.7278,-2.7318,-2.6839,-2.6837,-2.6836,-2.6835,0,-2.6169,-2.6164,-2.629,-2.6297,-2.6304,-2.6263,-2.6293,-2.6278,-2.6265,-2.6388,-2.6281,-2.6349,-2.6461,-2.6475,-2.6497,-2.6783,-2.6702,-2.6803,-2.6982,-2.7081,-2.7117,-2.7148,-2.7255,-2.7294,-2.6825,-2.6826,-2.6826,0,-2.5883,-2.587,-2.5923,-2.5975,-2.5979,-2.606,-2.5893,-2.5985,-2.6045,-2.5899,-2.6025,-2.6013,-2.6025,-2.6187,-2.6257,-2.6187,-2.6536,-2.6412,-2.6435,-2.6444,-2.6537,-2.658,-2.6618,-2.6116,-2.6114,-2.6112,0,0,-2.5749,-2.5823,-2.5784,-2.5935,-2.5944,-2.5887,-2.5923,-2.5866,-2.5878,-2.5884,-2.5868,-2.5885,-2.5948,-2.5993,-2.6049,-2.6235,-2.6234,-2.6328,-2.6361,-2.6389,-2.6413,-2.6513,-2.6556,-2.6103,-2.6103,-2.6103,0,0,-2.5686,-2.5646,-2.5582,-2.5748,-2.5762,-2.5736,-2.5831,-2.5753,-2.5797,-2.5777,-2.5689,-2.569,-2.5839,-2.5833,-2.5728,-2.6,-2.5861,-2.5884,-2.6,-2.6042,-2.6074,-2.6076,-2.5562,0,0,0,0,0,-2.5483,-2.565,-2.5593,-2.561,-2.5678,-2.5767,-2.5775,-2.5705,-2.5607,-2.5685,-2.5658,-2.5566,-2.5758,-2.5664,-2.5684,-2.5804,-2.5996,-2.6015,-2.6033,-2.6226,-2.627,-2.6307,0,0,0,0,0,0,-2.5489,-2.5511,-2.5588,-2.557,-2.5584,-2.576,-2.558,-2.5566,-2.5598,-2.5578,-2.5574,-2.5566,-2.551,-2.5649,-2.5668,-2.5783,-2.5555,-2.6004,-2.602,-2.6034,-2.6241,-2.6277,-2.6308,0,0,0,0,0,-2.5494,-2.5512,-2.5638,-2.5567,-2.5579,-2.5526,-2.5574,-2.556,-2.5584,-2.5544,-2.5533,-2.5528,-2.5515,-2.5526,-2.566,-2.5776,-2.5541,-2.5549,-2.6014,-2.6027,-2.6038,-2.6258,0,0,0,0,0,0,-2.5498,-2.5501,-2.5639,-2.564,-2.5498,-2.5514,-2.5514,-2.5556,-2.5546,-2.5537,-2.5492,-2.5477,-2.5521,-2.5528,-2.5538,-2.5778,-2.553,-2.5538,-2.5542,-2.6024,-2.6034,-2.6043,0,0,0,0,0,0,-2.5491,-2.5503,-2.5639,-2.5557,-2.5548,-2.5504,-2.5504,-2.5608,-2.5547,-2.5494,-2.5481,-2.5486,-2.5507,-2.5531,-2.5538,-2.5702,-2.5521,-2.5529,-2.5534,-2.5537,-2.6032,-2.604,0,0,0,0,0,0,-2.5494,-2.5505,-2.5556,-2.555,-2.5541,-2.5551,-2.5594,-2.5668,-2.5475,-2.5497,-2.5455,-2.5447,-2.5512,-2.5517,-2.5538,-2.57,-2.5701,-2.5521,-2.5526,-2.553,-2.5532,0,0,0,0,0,0,0,-2.5498,-2.5445,-2.5631,-2.5544,-2.5536,-2.5652,-2.5652,-2.5653,-2.5473,-2.5465,-2.5457,-2.545,-2.548,-2.5488,-2.5496,-2.5699,0,0,-2.5521,-2.5524,0,0,0,0,0,0,0,0,-2.5439,-2.5443,-2.5631,-2.5631,-2.5632,-2.5652,-2.5652,-2.5652,-2.5471,-2.5465,-2.5459,-2.5453,-2.5482,-2.5488,-2.5495,0,0,0,0,0,0,0,0,0,0,0,0,0,0,0,-2.5631,-2.5631,0,-2.5652,-2.5652,-2.5652,-2.547,-2.5465,-2.546,-2.5455,-2.5484,-2.5489,-2.5494,0,0,0,0,0,0,0,0,0,0,0,0,0,0,0,0,0,0,0,0,0,0,0,0,0,0,0,0,0,0,0,0,0,0,0,0,0,0,0,0,0,0,0,0,0,0,0,0,0,0,0,0,0,0,0,0,0,0,0,0,0,0,0,0,0,0,0,0,0]}],[{"header":{"parameterUnit":"kt","parameterCategory":2,"dx":1,"dy":1,"la1":30.253999710083008,"la2":30.299108505249023,"lo1":-89.0895004272461,"lo2":-89.04439544677734,"nx":28,"ny":28,"refTime":"2022-10-03T21:00:00:Z","depth":0,"parameterNumber":2,"parameterNumberName":"V-component_of_WINDS"},"data":[-6.842,-6.8516,-6.8515,-6.8623,-6.864,-6.8713,-6.8738,-6.877,-6.8794,-6.8879,-6.8926,-6.8933,-6.8954,-6.9009,-6.9058,-6.9059,-6.9079,-6.9114,-6.9109,-6.8958,-6.8937,-6.8916,-6.8893,-6.9119,-6.912,-6.9264,-6.9265,-6.9267,-6.8306,-6.8325,-6.8383,-6.8438,-6.8486,-6.8452,-6.8492,-6.8534,-6.8599,-6.863,-6.8677,-6.8751,-6.8807,-6.8817,-6.887,-6.8912,-6.8897,-6.8926,-6.8922,-6.8925,-6.8764,-6.874,-6.8937,-6.8937,-6.8937,-6.8937,-6.8937,-6.8937,-6.8099,-6.8157,-6.819,-6.8253,-6.828,-6.8316,-6.837,-6.8378,-6.8433,-6.8491,-6.8478,-6.8551,-6.858,-6.8643,-6.8663,-6.8717,-6.8684,-6.8714,-6.8721,-6.8728,-6.8736,-6.8523,-6.8727,-6.8726,-6.8726,-6.8725,-6.8725,0,-6.7946,-6.7941,-6.7997,-6.8053,-6.8098,-6.814,-6.8178,-6.8212,-6.8199,-6.8245,-6.831,-6.8347,-6.8418,-6.8477,-6.8527,-6.8541,-6.8507,-6.8504,-6.8524,-6.853,-6.8529,-6.8528,-6.8263,-6.8497,-6.8496,-6.8494,-6.8493,-6.8492,-6.7734,-6.7804,-6.7838,-6.7877,-6.7898,-6.7961,-6.7998,-6.7982,-6.8021,-6.8064,-6.8115,-6.8176,-6.8223,-6.8326,-6.8331,-6.8384,-6.8367,-6.8456,-6.8374,-6.8378,-6.8365,-6.836,-6.8365,-6.8471,-6.8474,-6.8476,-6.8478,0,-6.7614,-6.7613,-6.7719,-6.7746,-6.7755,-6.7827,-6.7848,-6.7905,-6.7906,-6.7984,-6.8001,-6.8002,-6.8065,-6.8057,-6.8127,-6.812,-6.8233,-6.8217,-6.8222,-6.8217,-6.8294,-6.8286,-6.8551,-6.8584,-6.8353,-6.8355,-6.8357,0,-6.7431,-6.7523,-6.7515,-6.7577,-6.7677,-6.7659,-6.7758,-6.7768,-6.7795,-6.7856,-6.7818,-6.7875,-6.7855,-6.7911,-6.7901,-6.7992,-6.8006,-6.8005,-6.8001,-6.8007,-6.8007,-6.8025,-6.8012,-6.7992,-6.7991,-6.7989,-6.7988,0,-6.7242,-6.7346,-6.7447,-6.747,-6.7508,-6.7555,-6.7572,-6.7602,-6.7638,-6.7683,-6.7706,-6.776,-6.7789,-6.783,-6.7816,-6.7761,-6.7929,-6.7849,-6.7927,-6.7927,-6.7963,-6.796,-6.82,-6.7987,-6.7986,-6.7986,-6.7985,0,-6.7093,-6.7143,-6.7291,-6.732,-6.7348,-6.7415,-6.7467,-6.7523,-6.7556,-6.7555,-6.759,-6.7562,-6.7644,-6.7566,-6.7676,-6.7608,-6.7637,-6.7644,-6.765,-6.7654,-6.7566,-6.7699,-6.793,-6.7953,-6.7661,-6.7658,-6.7656,0,-6.6875,-6.7025,-6.7011,-6.7152,-6.722,-6.7172,-6.7245,-6.7277,-6.7281,-6.7337,-6.734,-6.7404,-6.7344,-6.7363,-6.7419,-6.7424,-6.7514,-6.7412,-6.7488,-6.7491,-6.7478,-6.7691,-6.7727,-6.7881,-6.7621,-6.7625,-6.7627,0,-6.6706,-6.6753,-6.6779,-6.6804,-6.6846,-6.6902,-6.6987,-6.7047,-6.7085,-6.7126,-6.7194,-6.7285,-6.7242,-6.7274,-6.7257,-6.7316,-6.7453,-6.7262,-6.7262,-6.7294,-6.7604,-6.7637,-6.7663,-6.7428,-6.7432,-6.7435,-6.76,0,-6.6476,-6.6552,-6.6624,-6.6683,-6.6726,-6.6814,-6.6807,-6.6853,-6.6833,-6.6835,-6.6937,-6.6961,-6.702,-6.7049,-6.703,-6.7169,-6.7143,-6.7098,-6.7019,-6.716,-6.7214,-6.7236,-6.6939,-6.6937,-6.6935,-6.6933,0,0,-6.6266,-6.6375,-6.6358,-6.6441,-6.6475,-6.6425,-6.652,-6.6547,-6.6605,-6.6629,-6.6585,-6.6716,-6.6737,-6.6861,-6.6905,-6.693,-6.6953,-6.6904,-6.7093,-6.7111,-6.7128,-6.7186,-6.7209,-6.693,-6.6929,-6.6928,-6.6927,0,-6.6181,-6.6209,-6.6305,-6.6333,-6.6375,-6.6374,-6.6397,-6.6428,-6.6434,-6.6535,-6.649,-6.6549,-6.6656,-6.6683,-6.6711,-6.689,-6.685,-6.6909,-6.7007,-6.7074,-6.7094,-6.7112,-6.7173,-6.7196,-6.6923,-6.6923,-6.6923,0,-6.6011,-6.6036,-6.6082,-6.6162,-6.6188,-6.626,-6.6176,-6.6256,-6.6308,-6.6246,-6.6346,-6.6359,-6.6395,-6.6514,-6.6568,-6.6529,-6.6757,-6.6685,-6.6697,-6.6702,-6.6766,-6.6791,-6.6813,-6.6522,-6.652,-6.6519,0,0,-6.5938,-6.6009,-6.603,-6.6143,-6.6163,-6.6163,-6.62,-6.6184,-6.622,-6.6234,-6.6249,-6.6284,-6.6344,-6.6385,-6.6442,-6.6575,-6.6579,-6.6636,-6.6655,-6.667,-6.6684,-6.6752,-6.6776,-6.6514,-6.6514,-6.6514,0,0,-6.5902,-6.5931,-6.5906,-6.6037,-6.6073,-6.61,-6.6168,-6.6136,-6.6187,-6.6176,-6.6151,-6.6159,-6.627,-6.6284,-6.6216,-6.6413,-6.6335,-6.6351,-6.64,-6.6424,-6.6442,-6.6435,-6.6132,0,0,0,0,0,-6.5811,-6.5928,-6.5904,-6.5925,-6.6025,-6.6113,-6.6125,-6.6109,-6.6054,-6.6108,-6.6115,-6.6071,-6.6242,-6.6181,-6.6201,-6.6276,-6.6448,-6.6459,-6.647,-6.6564,-6.6589,-6.661,0,0,0,0,0,0,-6.5819,-6.5845,-6.5901,-6.5933,-6.5955,-6.6109,-6.6012,-6.601,-6.6047,-6.6038,-6.6071,-6.6072,-6.6058,-6.617,-6.6188,-6.626,-6.6125,-6.6452,-6.6462,-6.6471,-6.6573,-6.6593,-6.6611,0,0,0,0,0,-6.5826,-6.5846,-6.6012,-6.5931,-6.595,-6.5956,-6.6007,-6.6005,-6.6033,-6.6045,-6.6044,-6.6018,-6.6061,-6.6075,-6.6181,-6.6252,-6.6113,-6.612,-6.6459,-6.6467,-6.6474,-6.6583,0,0,0,0,0,0,-6.583,-6.5844,-6.6015,-6.6021,-6.5886,-6.5947,-6.5956,-6.6001,-6.6037,-6.6038,-6.5989,-6.5981,-6.6064,-6.6074,-6.6085,-6.625,-6.6102,-6.6109,-6.6114,-6.6465,-6.6471,-6.6476,0,0,0,0,0,0,-6.5833,-6.5849,-6.6018,-6.5963,-6.5961,-6.5939,-6.5947,-6.6034,-6.6038,-6.5979,-6.5974,-6.5985,-6.6046,-6.6075,-6.6083,-6.622,-6.6094,-6.6101,-6.6106,-6.6109,-6.647,-6.6475,0,0,0,0,0,0,-6.5839,-6.5853,-6.5961,-6.596,-6.5958,-6.6015,-6.6015,-6.6118,-6.5993,-6.5978,-6.5981,-6.5976,-6.6048,-6.6056,-6.6082,-6.6215,-6.6219,-6.6095,-6.6099,-6.6102,-6.6104,0,0,0,0,0,0,0,-6.5845,-6.5757,-6.5985,-6.5958,-6.5956,-6.6068,-6.6069,-6.6071,-6.5992,-6.5987,-6.5983,-6.5978,-6.6056,-6.6063,-6.6071,-6.6212,0,0,-6.6094,-6.6097,0,0,0,0,0,0,0,0,-6.575,-6.5755,-6.5985,-6.5987,-6.5988,-6.6068,-6.6069,-6.6071,-6.5991,-6.5987,-6.5984,-6.598,-6.6058,-6.6064,-6.607,0,0,0,0,0,0,0,0,0,0,0,0,0,0,0,-6.5986,-6.5987,0,-6.6068,-6.6069,-6.607,-6.5991,-6.5988,-6.5984,-6.5981,-6.606,-6.6065,-6.607,0,0,0,0,0,0,0,0,0,0,0,0,0,0,0,0,0,0,0,0,0,0,0,0,0,0,0,0,0,0,0,0,0,0,0,0,0,0,0,0,0,0,0,0,0,0,0,0,0,0,0,0,0,0,0,0,0,0,0,0,0,0,0,0,0,0,0,0,0]}]]]